TimeEDT,TemperatureF,Dew PointF,Humidity,Sea Level PressureIn,VisibilityMPH,Wind Direction,Wind SpeedMPH,Gust SpeedMPH,PrecipitationIn,Events,Conditions,WindDirDegrees,DateUTC
12:15 AM,43.3,32.2,65,30.12,10.0,ESE,6.9,-,N/A,,Clear,120,2013-04-23 04:15:00
12:35 AM,39.6,32.9,77,30.11,10.0,SE,8.1,-,N/A,,Clear,130,2013-04-23 04:35:00
12:55 AM,41.0,33.1,73,30.11,10.0,SE,9.2,-,N/A,,Clear,130,2013-04-23 04:55:00
1:15 AM,45.0,32.9,63,30.11,10.0,SE,9.2,-,N/A,,Clear,140,2013-04-23 05:15:00
1:35 AM,45.9,32.9,61,30.10,10.0,SE,10.4,-,N/A,,Clear,140,2013-04-23 05:35:00
1:55 AM,46.6,32.9,59,30.10,10.0,SE,10.4,16.1,N/A,,Clear,140,2013-04-23 05:55:00
2:15 AM,46.8,32.4,57,30.09,10.0,SE,10.4,-,N/A,,Clear,140,2013-04-23 06:15:00
2:35 AM,46.2,32.0,58,30.08,10.0,SE,9.2,-,N/A,,Clear,140,2013-04-23 06:35:00
2:55 AM,46.4,31.8,57,30.07,10.0,SE,10.4,-,N/A,,Clear,140,2013-04-23 06:55:00
3:15 AM,45.7,31.8,58,30.06,10.0,SE,9.2,-,N/A,,Clear,140,2013-04-23 07:15:00
3:35 AM,45.9,31.1,56,30.05,10.0,SE,10.4,16.1,N/A,,Clear,140,2013-04-23 07:35:00
3:55 AM,46.4,30.7,54,30.04,10.0,SE,9.2,17.3,N/A,,Clear,140,2013-04-23 07:55:00
4:15 AM,46.4,30.2,53,30.04,10.0,SE,9.2,18.4,N/A,,Clear,140,2013-04-23 08:15:00
4:35 AM,45.9,30.2,54,30.03,10.0,SE,12.7,17.3,N/A,,Clear,140,2013-04-23 08:35:00
4:55 AM,45.9,30.0,54,30.01,10.0,SSE,11.5,17.3,N/A,,Clear,150,2013-04-23 08:55:00
5:15 AM,45.9,29.8,54,30.00,10.0,SSE,10.4,17.3,N/A,,Clear,150,2013-04-23 09:15:00
5:35 AM,46.4,29.5,52,29.99,10.0,SE,9.2,16.1,N/A,,Clear,140,2013-04-23 09:35:00
6:15 AM,46.0,30.0,54,29.96,10.0,SE,9.2,-,N/A,,Clear,140,2013-04-23 10:15:00
6:35 AM,45.7,30.4,55,29.95,10.0,SE,11.5,17.3,N/A,,Clear,140,2013-04-23 10:35:00
6:55 AM,45.7,30.7,56,29.95,10.0,SE,10.4,17.3,N/A,,Clear,140,2013-04-23 10:55:00
7:15 AM,45.0,31.5,59,29.94,10.0,SE,11.5,17.3,N/A,,Clear,140,2013-04-23 11:15:00
7:36 AM,45.7,31.6,58,29.93,10.0,SE,10.4,18.4,N/A,,Clear,140,2013-04-23 11:36:00
7:55 AM,46.2,31.6,57,29.92,10.0,SE,10.4,17.3,N/A,,Scattered Clouds,140,2013-04-23 11:55:00
8:15 AM,46.6,32.0,57,29.92,10.0,SE,11.5,18.4,N/A,,Overcast,140,2013-04-23 12:15:00
8:36 AM,44.6,32.7,63,29.91,10.0,SE,8.1,-,N/A,,Mostly Cloudy,140,2013-04-23 12:36:00
8:55 AM,41.2,33.4,74,29.91,10.0,East,5.8,-,N/A,,Mostly Cloudy,90,2013-04-23 12:55:00
9:15 AM,40.3,33.8,78,29.92,10.0,Calm,Calm,-,N/A,,Mostly Cloudy,0,2013-04-23 13:15:00
9:36 AM,41.0,34.3,77,29.91,10.0,East,4.6,-,N/A,,Overcast,90,2013-04-23 13:36:00
9:55 AM,41.2,34.7,78,29.91,10.0,East,3.5,-,N/A,,Overcast,100,2013-04-23 13:55:00
10:15 AM,41.0,34.9,79,29.91,7.0,Calm,Calm,-,N/A,,Unknown,0,2013-04-23 14:15:00
10:36 AM,41.2,36.9,85,29.88,4.0,East,3.5,-,N/A,,Overcast,100,2013-04-23 14:36:00
10:55 AM,43.3,38.7,84,29.89,2.0,SE,5.8,-,0.03,,Unknown,130,2013-04-23 14:55:00
11:15 AM,43.3,39.6,87,29.88,10.0,SE,6.9,-,N/A,,Light Drizzle,140,2013-04-23 15:15:00
11:36 AM,43.7,39.6,85,29.88,10.0,SSE,6.9,-,N/A,,Overcast,150,2013-04-23 15:36:00
11:55 AM,46.6,39.9,78,29.87,10.0,SSE,9.2,-,N/A,,Overcast,150,2013-04-23 15:55:00
12:15 PM,47.3,39.9,76,29.86,10.0,SSE,8.1,-,N/A,,Overcast,150,2013-04-23 16:15:00
12:35 PM,48.6,41.2,76,29.85,10.0,SSE,8.1,-,N/A,,Overcast,160,2013-04-23 16:35:00
12:55 PM,51.1,42.4,72,29.85,10.0,South,5.8,-,N/A,,Mostly Cloudy,170,2013-04-23 16:55:00
1:15 PM,52.2,42.4,69,29.85,10.0,South,5.8,-,N/A,,Overcast,190,2013-04-23 17:15:00
1:35 PM,51.8,42.3,70,29.84,10.0,SW,9.2,-,N/A,,Overcast,220,2013-04-23 17:35:00
1:55 PM,52.0,42.4,70,29.84,10.0,WSW,5.8,-,N/A,,Overcast,240,2013-04-23 17:55:00
2:15 PM,48.6,41.2,76,29.85,10.0,WSW,13.8,25.3,N/A,Rain,Light Rain,250,2013-04-23 18:15:00
2:35 PM,45.5,41.0,84,29.85,7.0,WSW,16.1,24.2,N/A,Rain,Light Rain,250,2013-04-23 18:35:00
2:55 PM,43.0,39.9,89,29.85,7.0,West,8.1,-,N/A,,Overcast,260,2013-04-23 18:55:00
3:15 PM,41.9,39.2,90,29.84,5.0,West,8.1,-,N/A,,Overcast,260,2013-04-23 19:15:00
3:35 PM,41.0,38.7,91,29.85,1.8,West,11.5,-,N/A,Rain,Light Rain,260,2013-04-23 19:35:00
3:55 PM,40.1,38.3,93,29.85,1.0,WSW,9.2,-,0.02,,Overcast,250,2013-04-23 19:55:00
4:15 PM,39.6,37.9,94,29.86,0.8,West,10.4,-,0.01,,Overcast,260,2013-04-23 20:15:00
4:35 PM,39.2,37.8,95,29.86,2.0,West,11.5,-,0.03,,Overcast,270,2013-04-23 20:35:00
4:55 PM,38.8,37.4,95,29.86,4.0,West,13.8,-,0.04,,Unknown,270,2013-04-23 20:55:00
5:15 PM,39.4,37.9,95,29.86,5.0,WNW,10.4,-,0.01,,Unknown,290,2013-04-23 21:15:00
5:35 PM,39.2,37.4,93,29.86,3.0,WNW,11.5,-,0.02,,Overcast,300,2013-04-23 21:35:00
5:55 PM,38.7,37.0,94,29.87,3.0,WNW,10.4,16.1,0.04,,Overcast,300,2013-04-23 21:55:00
6:15 PM,38.3,36.7,94,29.87,5.0,WNW,10.4,17.3,0.01,,Overcast,300,2013-04-23 22:15:00
6:35 PM,37.8,36.0,93,29.87,5.0,NW,10.4,17.3,0.01,Snow,Light Snow,310,2013-04-23 22:35:00
6:55 PM,36.7,34.9,93,29.88,7.0,NW,15.0,21.9,0.01,Snow,Light Snow,320,2013-04-23 22:55:00
7:16 PM,35.6,33.8,93,29.89,7.0,NW,8.1,19.6,N/A,Snow,Light Snow,320,2013-04-23 23:16:00
7:35 PM,35.1,33.4,94,29.88,4.0,NW,8.1,-,N/A,Snow,Light Snow,320,2013-04-23 23:35:00
7:55 PM,34.5,32.9,94,29.89,1.5,WNW,8.1,-,N/A,Snow,Light Snow,300,2013-04-23 23:55:00
8:16 PM,34.2,32.7,94,29.89,0.8,WNW,8.1,-,N/A,Snow,Light Snow,300,2013-04-24 00:16:00
8:35 PM,34.0,32.7,95,29.88,1.5,WNW,9.2,-,N/A,Snow,Light Snow,300,2013-04-24 00:35:00
8:55 PM,34.0,32.9,96,29.88,10.0,WNW,10.4,16.1,N/A,Snow,Light Snow,300,2013-04-24 00:55:00
9:16 PM,34.2,32.5,94,29.89,10.0,WNW,9.2,-,N/A,,Overcast,300,2013-04-24 01:16:00
9:35 PM,34.2,32.4,93,29.89,10.0,WNW,10.4,16.1,N/A,,Overcast,300,2013-04-24 01:35:00
9:55 PM,34.2,32.2,92,29.90,10.0,WNW,10.4,16.1,N/A,,Overcast,300,2013-04-24 01:55:00
10:15 PM,34.2,32.0,92,29.89,10.0,WNW,9.2,-,N/A,,Overcast,300,2013-04-24 02:15:00
10:35 PM,34.0,32.0,92,29.89,10.0,WNW,11.5,16.1,N/A,,Overcast,300,2013-04-24 02:35:00
10:56 PM,34.0,32.0,92,29.89,10.0,WNW,10.4,-,N/A,,Overcast,290,2013-04-24 02:56:00
11:15 PM,34.0,32.0,92,29.89,10.0,WNW,11.5,16.1,N/A,,Overcast,300,2013-04-24 03:15:00
11:35 PM,34.0,31.8,92,29.88,10.0,WNW,10.4,16.1,N/A,,Overcast,300,2013-04-24 03:35:00
11:56 PM,33.8,31.8,92,29.88,10.0,NW,9.2,16.1,N/A,,Overcast,310,2013-04-24 03:56:00